This is the latest recevied weather packets stored in our database for station/object KM6YFK-13. If no packets are shown the sender has not sent any weather packets the latest 10 day(s).
| Time | Temp. | Humidity | Pressure | Rain* | Wind** | Luminosity | Snow |
|---|---|---|---|---|---|---|---|
| 1777887808 | 20° C | 79% | 1016.5 hPa | 0 mm | - | 0 W/m² | - |
| 1777887507 | 20° C | 78% | 1016.4 hPa | 0 mm | - | 0 W/m² | - |
| 1777887208 | 19.44° C | 79% | 1016.5 hPa | 0 mm | - | 0 W/m² | - |
| 1777886907 | 19.44° C | 82% | 1016.5 hPa | 0 mm | - | 0 W/m² | - |
| 1777886607 | 18.89° C | 83% | 1016.5 hPa | 0 mm | - | 0 W/m² | - |
| 1777886307 | 18.89° C | 85% | 1016.4 hPa | 0 mm | - | 0 W/m² | - |
| 1777886008 | 18.89° C | 85% | 1016.5 hPa | 0 mm | - | 0 W/m² | - |
| 1777885707 | 18.33° C | 86% | 1016.5 hPa | 0 mm | - | 0 W/m² | - |
| 1777885407 | 18.33° C | 87% | 1016.5 hPa | 0 mm | - | 0 W/m² | - |
| 1777885108 | 17.78° C | 87% | 1016.5 hPa | 0 mm | - | 0 W/m² | - |
| 1777884807 | 18.33° C | 87% | 1016.5 hPa | 0 mm | - | 0 W/m² | - |
| 1777884507 | 18.33° C | 86% | 1016.5 hPa | 0 mm | - | 0 W/m² | - |
| 1777884208 | 18.33° C | 84% | 1016.5 hPa | 0 mm | - | 0 W/m² | - |
| 1777883908 | 18.33° C | 82% | 1016.4 hPa | 0 mm | - | 0 W/m² | - |
| 1777883608 | 18.89° C | 81% | 1016.5 hPa | 0 mm | - | 0 W/m² | - |
| 1777883307 | 18.33° C | 81% | 1016.5 hPa | 0 mm | - | 0 W/m² | - |
| 1777883007 | 18.33° C | 77% | 1016.4 hPa | 0 mm | - | 0 W/m² | - |
| 1777882708 | 18.89° C | 78% | 1016.5 hPa | 0 mm | - | 0 W/m² | - |
| 1777882407 | 18.89° C | 76% | 1016.5 hPa | 0 mm | - | 0 W/m² | - |
| 1777882107 | 18.89° C | 75% | 1016.5 hPa | 0 mm | - | 0 W/m² | - |
| 1777881808 | 18.89° C | 75% | 1016.5 hPa | 0 mm | - | 0 W/m² | - |
| 1777881507 | 18.89° C | 76% | 1016.5 hPa | 0 mm | - | 0 W/m² | - |
| 1777881207 | 19.44° C | 75% | 1016.4 hPa | 0 mm | - | 0 W/m² | - |
| 1777880907 | 19.44° C | 75% | 1016.5 hPa | 0 mm | - | 0 W/m² | - |
| 1777880608 | 19.44° C | 74% | 1016.5 hPa | 0 mm | - | 0 W/m² | - |
* Rain latest hour (hover to see other rain measurements)
** Current wind speed in m/s (hover to see current wind gust speed)